{"data":{"norad_id":65509,"intl_designator":"2025-198T","name":"STARLINK-35168","alt_names":[],"object_type":"PAYLOAD","status":"ACTIVE","operator":null,"country":"US","launch_date":"2025-09-05","launch_site_code":"AFETR","launch_vehicle":null,"mission":null,"orbit_class":"UNKNOWN","rcs_meters":null,"size_class":null,"mass_kg":null,"dimensions":null,"purposes":["comms"],"wikipedia_slug":null,"has_3d_model":false,"image_url":null,"decayed_at":null,"tle_current":{"epoch":"2026-05-25T01:30:59.933952Z","epoch_age_seconds":80338,"freshness":"FRESH","line1":"1 65509U 25198T   26145.06319368  .00025279  00000+0  75677-3 0  9993","line2":"2 65509  53.1596 275.5101 0000905  92.9648 267.1458 15.34400577 40327","mean_motion":15.34400577,"eccentricity":9.05e-5,"inclination_deg":53.1596,"raan_deg":275.5101,"arg_perigee_deg":92.9648,"mean_anomaly_deg":267.1458,"bstar":0.00075677,"rev_number":4032,"period_min":93.847722790579,"perigee_km":462.08242935551,"apogee_km":463.32062112858,"semimajor_km":6840.838525242,"source":"CELESTRAK","updated_at":"2026-05-25T13:38:20.843308Z"}}}